Theta_e
309 309 310 310 309 308 309 311 302 315 318 306 306 301 299 297 301 302 299 300 298 296 296 296 295 294 297 301 301 296 302 298 292 296 302 304 302 297 299 288 288 291 289 293
308 307 308 309 309 308 310 305 307 315 316 301 301 301 299 300 299 299 298 298 298 299 297 294 296 297 300 302 300 297 301 296 292 294 299 302 299 299 299 301 298 291 285 291
307 306 307 308 308 308 308 307 302 307 309 307 301 299 298 297 301 299 300 299 300 299 298 299 296 297 299 301 299 303 301 300 295 288 293 297 294 297 299 297 292 290 291 293
306 306 306 307 308 308 309 307 302 302 300 302 301 301 298 296 296 300 301 299 298 298 294 296 296 297 298 299 301 304 304 296 298 298 297 297 297 297 298 295 296 290 292 295
305 305 305 307 308 308 311 304 303 307 305 301 300 297 299 296 298 298 298 297 299 299 296 297 294 297 297 295 299 300 303 296 298 295 298 297 296 297 300 298 297 295 297 297
305 304 305 306 307 309 310 309 309 304 299 299 299 300 298 297 300 301 301 300 300 299 300 302 303 303 302 301 299 299 299 298 294 292 297 298 292 297 299 299 299 297 293 300
304 304 304 305 307 309 311 310 307 302 299 300 299 298 299 298 300 298 302 303 301 303 308 306 306 305 304 304 303 304 300 299 296 292 294 287 298 303 303 300 300 300 300 303
303 304 303 304 305 307 308 312 308 304 297 300 299 298 299 301 302 301 301 302 306 308 303 300 298 299 300 300 303 304 304 300 294 290 291 295 297 300 300 299 298 302 302 303
303 303 303 303 304 306 308 308 311 306 299 301 301 300 301 299 299 300 301 306 309 305 301 299 292 293 293 294 295 303 302 303 296 293 285 287 298 303 306 306 293 305 305 303
302 302 304 305 304 305 307 310 311 307 299 302 303 300 301 302 299 297 301 302 303 305 300 296 294 295 296 292 291 294 295 295 292 292 291 295 303 304 304 292 296 307 306 304
301 302 303 304 305 304 305 308 314 305 299 302 304 304 301 302 301 295 300 299 300 300 296 296 297 294 297 293 297 295 293 292 292 294 291 287 306 303 295 303 308 308 308 306
301 301 303 303 305 306 305 302 310 313 301 301 308 309 309 306 306 302 301 299 300 299 296 297 297 293 294 294 287 299 293 297 296 297 296 306 306 305 309 311 305 309 309 309
301 302 302 304 305 305 305 303 304 307 301 300 301 301 308 311 309 310 298 300 303 300 307 298 297 292 298 290 293 296 300 303 297 298 301 302 304 305 306 306 307 311 311 311
302 302 302 303 304 305 305 305 305 303 300 294 298 308 305 310 311 311 311 308 307 306 304 297 294 291 300 296 297 295 299 301 299 299 302 303 303 307 309 310 311 311 311 311
302 302 303 303 304 306 306 307 308 304 300 294 297 302 304 306 307 306 307 306 305 301 296 294 292 297 295 299 298 294 301 299 297 297 302 302 303 307 309 310 310 311 310 310
302 303 303 303 304 306 307 297 306 306 303 295 291 302 302 305 306 305 305 305 303 301 297 294 298 302 299 294 294 301 304 305 306 303 307 305 307 308 310 310 311 312 312 311
302 302 303 304 305 305 301 299 305 305 307 296 290 295 302 303 303 305 304 306 300 298 296 295 299 299 298 296 293 300 303 304 306 307 306 304 306 305 309 310 312 312 312 312
302 302 303 304 305 304 301 305 305 308 300 298 291 292 295 302 299 298 305 301 298 298 297 300 298 300 297 291 299 301 302 303 304 305 307 307 308 308 308 311 311 310 311 311
302 303 303 304 302 298 301 307 309 310 302 292 291 289 290 301 299 301 300 301 292 301 294 295 299 296 293 297 300 301 302 303 303 305 306 306 306 306 307 308 309 309 310 310
302 302 298 295 302 308 307 302 297 295 298 298 291 296 291 297 296 295 295 298 294 290 294 299 293 293 300 302 303 304 304 305 306 303 303 304 304 306 308 308 309 311 311 311
300 296 295 305 306 302 298 293 291 291 287 291 291 293 290 298 289 288 294 293 295 288 294 294 292 293 300 305 305 307 308 308 308 308 308 308 308 308 309 308 310 312 311 310
299 296 302 302 296 293 288 288 290 288 287 292 291 292 293 294 295 290 292 290 294 287 299 293 290 298 303 303 303 306 309 309 309 310 308 308 308 308 311 311 312 311 310 310
299 293 288 292 289 284 283 282 285 286 292 294 294 292 294 293 294 290 290 287 288 297 291 289 293 300 301 302 302 303 306 309 308 309 309 308 308 307 308 309 309 309 308 309
289 286 282 285 285 287 289 289 291 294 296 296 296 293 293 292 289 290 286 292 293 287 286 288 297 298 300 301 301 302 302 302 304 306 307 307 306 306 306 308 307 305 306 307
288 288 282 286 291 293 293 294 294 296 299 297 293 292 293 290 287 289 288 285 284 287 288 294 298 300 300 299 299 300 300 301 305 304 305 306 305 305 305 305 305 304 305 305
290 287 285 289 288 289 292 293 293 298 297 298 297 292 287 287 290 286 284 284 284 290 293 297 299 299 298 297 298 301 298 299 302 303 303 302 302 303 304 302 302 302 301 303
286 285 290 290 291 291 295 296 296 300 296 289 292 284 285 292 286 285 291 288 292 296 297 299 300 297 296 296 296 296 295 295 295 296 297 297 300 301 300 298 299 301 301 303
Wind_Speed
19 20 21 23 25 26 10 5 3 9 10 2 1 3 3 1 2 4 2 7 6 7 9 10 8 5 5 3 8 15 6 7 9 20 2 8 10 12 7 3 4 6 4 6
18 20 22 22 23 18 9 7 4 6 7 2 4 3 2 2 6 5 3 5 3 2 10 8 5 6 3 11 10 7 6 5 9 11 9 7 19 15 12 11 12 7 8 9
17 19 22 23 23 21 6 5 2 3 5 4 4 3 2 3 2 4 6 6 4 10 13 4 9 12 6 9 16 7 7 10 7 8 17 17 14 16 12 13 7 7 5 24
16 17 19 22 23 22 6 3 4 4 3 5 6 3 2 5 5 2 2 3 4 11 7 17 3 6 13 9 1 3 6 11 13 16 17 16 12 10 14 13 5 4 14 20
14 16 17 18 21 27 2 5 5 0 1 1 5 2 2 3 7 4 1 5 11 11 11 13 21 19 15 7 5 6 6 9 14 16 10 8 15 9 15 15 7 6 17 19
12 13 15 16 19 19 3 2 2 6 3 1 4 3 2 6 7 4 6 10 13 12 9 16 19 19 18 17 17 13 8 7 10 11 15 15 2 7 14 14 2 11 15 20
12 12 12 13 15 13 4 4 5 4 1 4 3 4 7 7 9 11 13 12 10 9 21 21 16 13 13 11 11 11 8 10 7 12 13 3 3 6 12 14 2 13 16 20
10 11 11 11 11 12 3 4 4 4 5 5 8 5 5 8 6 7 8 6 12 14 15 8 6 6 8 5 4 8 10 8 7 4 10 15 2 5 14 15 13 12 18 19
9 9 9 9 9 10 4 2 5 4 6 2 3 7 11 8 8 9 6 9 9 4 6 5 4 3 5 2 3 3 5 9 7 11 5 4 4 10 14 11 3 18 17 17
8 8 10 8 7 7 5 3 2 4 5 7 9 6 7 5 5 7 9 7 5 3 5 5 4 3 3 4 6 4 8 7 9 8 7 10 7 10 14 7 14 18 16 15
8 7 10 10 7 5 4 3 3 3 4 11 16 16 16 12 7 6 5 8 3 6 4 4 3 5 3 6 9 10 7 7 6 5 8 7 6 14 12 12 14 16 14 13
8 8 9 10 9 7 5 5 4 3 4 8 11 14 14 14 12 9 1 7 6 4 4 3 4 6 5 7 6 2 5 5 9 8 9 18 19 15 11 11 16 13 12 12
9 9 9 10 10 9 7 5 5 4 6 12 14 13 11 13 18 17 10 6 7 5 5 4 3 7 5 6 8 14 12 10 9 13 4 11 19 20 18 16 15 10 9 10
10 10 9 10 10 12 8 5 4 4 5 6 4 2 3 3 7 13 16 15 2 3 4 6 5 4 7 8 12 14 14 18 14 18 19 15 10 9 9 9 8 8 8 7
12 11 11 11 12 11 8 7 7 7 5 6 8 17 17 15 14 19 17 14 15 8 4 6 5 4 3 12 18 15 16 21 15 12 5 9 12 11 12 11 10 9 8 9
13 13 12 11 12 7 5 3 3 6 6 3 5 8 9 7 6 10 13 12 11 10 4 4 6 9 5 8 11 12 14 13 17 19 16 11 13 13 13 12 10 8 8 5
14 14 13 12 11 5 6 4 4 2 6 3 4 6 5 3 5 4 5 7 5 7 5 7 12 8 7 9 20 25 18 16 15 17 17 18 18 15 13 8 7 4 4 4
13 12 14 13 12 9 9 10 11 6 3 3 4 6 7 3 4 4 4 6 6 7 6 7 9 6 5 11 21 18 15 15 18 18 19 20 18 16 16 12 8 9 7 1
10 11 12 8 6 5 6 7 14 7 6 4 3 5 4 3 3 3 4 3 5 4 7 9 8 11 11 19 17 19 17 15 16 16 16 11 13 15 15 18 14 11 8 2
10 6 5 5 5 15 13 4 5 5 5 5 6 8 8 1 4 4 4 6 7 7 10 7 9 12 24 22 23 23 23 21 19 19 18 19 16 14 16 17 14 11 6 2
4 5 6 3 8 2 4 5 6 5 4 5 5 11 12 6 6 4 5 4 4 4 5 6 6 6 4 14 18 18 21 18 19 20 20 18 18 10 11 13 12 7 5 5
2 2 5 2 3 4 5 6 5 5 6 7 6 7 7 3 3 5 4 5 5 7 4 5 4 4 10 14 19 20 18 19 22 17 16 15 16 9 8 7 7 5 3 3
2 4 2 5 4 7 7 9 6 5 5 5 6 6 4 5 5 4 5 6 6 4 5 6 5 10 12 16 18 19 20 22 20 12 10 12 8 7 7 8 6 3 4 5
4 4 5 6 6 7 6 7 3 4 4 5 5 2 5 3 4 4 5 5 4 6 8 12 5 12 14 15 17 19 19 17 19 8 8 11 12 11 8 6 5 4 4 4
5 4 5 7 3 2 1 3 2 5 3 4 3 3 4 5 4 4 3 4 7 6 5 5 9 15 17 17 18 17 14 10 13 6 8 9 9 9 7 6 5 4 2 4
4 5 4 3 3 7 7 5 5 2 4 3 4 2 3 6 4 7 9 7 7 2 3 9 11 16 17 17 19 14 4 4 5 6 7 6 5 5 5 5 4 5 3 4
3 4 5 6 6 5 2 2 3 2 4 4 4 5 9 3 4 5 5 6 5 6 10 9 13 16 18 16 7 3 4 5 4 3 2 4 3 4 4 5 4 4 3 3
Wind_Direction
354 351 346 344 347 341 331 303 295 13 327 239 26 37 352 337 334 356 300 295 289 301 323 312 309 285 294 16 318 325 332 298 288 298 277 220 334 344 349 282 315 270 257 289
354 352 348 345 348 3 317 330 328 6 314 57 60 65 112 334 341 342 313 304 308 292 308 310 283 294 315 304 320 327 338 251 306 325 161 220 342 315 322 295 281 271 306 304
356 354 349 344 344 350 299 295 312 81 62 61 348 352 19 330 1 292 324 294 274 319 312 270 282 299 329 319 312 328 215 259 281 283 297 302 296 323 311 308 306 326 286 314
356 355 351 346 342 337 291 352 59 9 11 51 349 304 306 328 359 321 311 204 303 333 302 313 277 299 308 315 247 249 246 286 303 303 293 282 295 301 330 336 352 295 316 324
354 357 355 346 340 332 289 334 330 231 330 324 291 156 44 313 347 285 206 312 327 311 288 288 297 307 308 310 279 319 307 284 302 291 282 278 282 276 323 341 354 313 331 337
353 358 358 350 348 337 351 60 149 286 113 220 260 63 320 313 325 270 276 314 310 303 328 308 291 287 283 272 276 292 283 297 309 299 327 303 354 288 341 336 8 334 351 337
354 356 358 355 349 2 315 1 294 278 298 277 326 289 282 284 307 285 295 301 304 321 319 299 259 246 255 250 245 229 270 299 279 301 308 274 45 331 337 327 334 346 353 346
344 350 358 355 351 350 315 324 300 306 289 290 272 210 298 287 269 267 293 308 325 320 301 287 299 191 207 186 219 204 228 285 301 298 318 286 52 357 343 338 324 344 358 346
332 344 347 344 347 345 310 277 307 287 307 118 274 273 299 284 304 281 251 334 320 288 273 268 294 318 328 311 285 146 214 242 276 313 290 286 53 354 334 318 221 6 358 351
320 330 333 328 342 338 315 294 254 276 258 268 268 246 313 329 303 280 294 342 319 252 299 286 312 322 323 285 295 333 305 275 260 266 279 285 54 347 320 267 359 336 353 356
307 329 320 323 320 318 303 288 193 246 256 280 275 270 269 269 250 268 4 308 170 271 287 298 11 284 11 286 288 290 292 306 287 281 274 284 39 328 337 331 323 322 342 355
302 308 310 308 315 298 261 272 224 216 243 269 308 277 274 271 272 279 230 286 300 313 288 321 316 286 287 284 286 266 265 239 315 299 300 318 312 307 304 306 312 317 339 351
288 289 298 302 305 305 281 271 287 287 272 273 246 251 237 230 232 241 247 235 223 221 253 297 276 261 272 275 283 272 275 258 255 301 258 305 310 300 290 288 291 329 336 338
280 280 285 288 288 293 289 247 228 248 293 278 319 17 244 219 227 216 211 245 198 291 274 246 246 230 251 267 281 279 282 294 278 283 284 284 256 349 340 317 317 319 330 343
274 277 279 281 286 288 278 265 228 219 260 323 309 308 272 245 240 227 236 237 233 242 224 225 232 243 287 271 271 263 258 260 252 264 348 292 295 312 318 310 306 330 336 332
278 272 275 271 282 295 272 281 180 199 177 266 276 328 285 268 260 248 231 220 223 231 204 234 232 205 228 274 276 274 253 250 256 258 272 289 285 298 293 286 291 326 328 337
274 274 281 279 284 271 242 343 45 146 160 234 261 255 168 247 262 197 205 196 192 221 221 233 253 239 187 262 268 264 273 271 252 255 269 269 271 269 269 298 301 297 327 344
268 266 270 279 274 267 252 239 187 158 214 216 255 267 284 156 239 227 168 176 194 208 232 244 247 247 166 254 253 273 273 274 272 271 272 264 264 269 270 249 278 286 283 352
269 275 281 276 220 225 227 80 188 208 258 263 214 261 280 123 235 249 187 225 214 236 224 233 240 215 217 241 269 292 302 296 287 285 285 267 254 255 252 249 251 263 275 217
264 255 223 220 202 111 130 146 160 187 219 230 253 242 239 259 313 283 289 171 226 202 207 236 232 255 263 282 287 291 294 293 289 275 265 263 260 264 261 243 233 245 260 235
213 222 225 98 141 184 202 200 199 163 221 216 221 238 254 255 250 240 273 289 242 241 182 216 210 235 280 7 348 330 316 307 295 268 258 255 259 276 259 230 217 204 225 220
162 335 300 148 191 197 209 196 172 213 227 171 218 205 192 221 189 212 236 252 247 254 128 227 232 114 10 353 345 337 335 318 304 283 250 234 240 243 229 204 205 195 201 190
226 214 247 197 176 198 212 188 181 198 200 196 190 177 155 179 194 211 239 239 238 294 234 238 249 26 354 344 337 336 334 329 309 280 234 216 181 161 183 196 197 179 192 208
230 209 220 220 173 231 194 228 220 139 201 179 186 170 197 133 188 246 249 245 272 256 243 237 36 357 336 330 329 327 327 331 301 284 215 171 172 158 162 181 175 197 196 217
210 215 241 206 257 39 335 253 217 201 223 233 153 197 230 168 224 206 268 253 250 229 294 3 336 333 326 323 323 319 319 304 263 195 193 173 165 159 156 164 181 201 194 218
240 211 241 197 239 233 218 212 220 206 265 222 248 270 244 238 217 183 212 235 243 294 343 310 328 324 319 308 311 302 308 313 284 166 157 139 158 154 150 163 199 195 199 213
218 222 233 257 275 280 223 218 238 312 246 232 205 212 214 266 234 236 227 255 350 296 304 323 322 322 309 310 307 35 52 57 68 73 69 104 152 137 168 192 189 205 188 189